[[{"header":{"parameterUnit":"m.s-1","parameterCategory":1,"la1":30.2992,"la2":30.254,"lo1":-89.0895,"lo2":-89.0443,"dy":0.0025,"dx":0.0025,"nx":19,"ny":19,"refTime":"2026-03-20T03:00:00:Z","depth":0,"parameterNumber":2,"parameterNumberName":"U-component_of_WINDS"},"data":[0,0,0,-0.0272,-0.0271,-0.0226,-0.0226,-0.0176,-0.0175,0,0,0,0,0,0,0,0,0,0,0,-0.0288,-0.0288,-0.0272,-0.0271,-0.0226,-0.0226,-0.0176,-0.0175,0,0,0,0,0,0,0,0,0,0,0,-0.0288,-0.0288,-0.0288,-0.027,-0.0226,-0.0226,-0.0176,-0.0207,0,0,0,0,0,0,0,0,0,0,-0.0249,-0.0268,-0.0288,-0.0288,-0.027,-0.0226,-0.0226,-0.0208,-0.0205,-0.0198,0,-0.0193,0,-0.0184,-0.0172,-0.0172,0,0,0,-0.0268,-0.0271,-0.0256,-0.0288,-0.027,-0.0227,-0.0246,-0.0206,-0.0203,-0.0194,-0.0193,-0.0191,-0.0183,-0.0172,-0.0172,-0.0144,-0.0144,0,0,-0.027,-0.0282,-0.0258,-0.0253,-0.0261,-0.0247,-0.0244,-0.0204,-0.0203,-0.0192,-0.0189,-0.0182,-0.0172,-0.0171,-0.0144,-0.0144,0,0,0,-0.0279,-0.0284,-0.027,-0.0256,-0.0247,-0.0246,-0.0243,-0.0205,-0.0199,-0.0189,-0.0181,-0.0171,-0.0171,-0.0144,-0.0144,-0.0157,0,0,0,-0.028,-0.0289,-0.0271,-0.0278,-0.0248,-0.0225,-0.0244,-0.0202,-0.0197,-0.0182,-0.0171,-0.017,-0.0144,-0.0144,-0.0157,-0.0161,0,0,0,-0.029,-0.029,-0.0285,-0.0278,-0.026,-0.0226,-0.0218,-0.0201,-0.0193,-0.0172,-0.017,-0.0144,-0.0144,-0.0156,-0.016,-0.0158,0,0,0,-0.0303,-0.0295,-0.0285,-0.0274,-0.026,-0.0234,-0.0218,-0.0198,-0.0181,-0.0171,-0.0144,-0.0144,-0.0156,-0.016,-0.0158,-0.0159,-0.016,0,0,-0.03,-0.0295,-0.0288,-0.0278,-0.0257,-0.024,-0.0221,-0.0194,-0.018,-0.0157,-0.0156,-0.0157,-0.016,-0.0158,-0.0163,-0.0165,0,0,0,-0.0291,-0.0286,-0.0278,-0.0263,-0.0244,-0.0228,-0.0203,-0.0193,-0.0173,-0.0171,-0.0155,-0.0156,-0.0155,-0.0155,-0.0156,-0.0154,-0.0145,-0.0145,-0.0145,-0.0302,-0.0288,-0.0275,-0.0255,-0.0242,-0.0218,-0.0205,-0.0189,-0.0176,-0.0173,-0.0165,-0.0171,-0.0171,-0.0172,-0.017,-0.0164,-0.0164,-0.0165,-0.0165,-0.0297,-0.0288,-0.0274,-0.0257,-0.0241,-0.0226,-0.0204,-0.0196,-0.018,-0.0174,-0.0172,-0.0166,-0.0174,-0.0172,-0.0165,-0.0165,-0.0165,-0.0165,-0.0165,-0.0303,-0.0296,-0.0286,-0.0265,-0.0251,-0.0232,-0.0218,-0.0204,-0.0191,-0.0189,-0.0181,-0.0181,-0.0179,-0.0186,-0.0186,-0.0186,-0.0186,-0.0186,-0.0186,-0.0313,-0.0301,-0.0292,-0.0273,-0.0263,-0.0248,-0.0226,-0.0216,-0.0201,-0.0192,-0.0192,-0.0181,-0.0177,-0.0177,-0.0186,-0.0186,-0.0186,-0.0186,-0.0186,-0.0313,-0.0312,-0.0297,-0.0288,-0.0265,-0.0253,-0.0236,-0.0218,-0.0208,-0.0202,-0.0192,-0.0191,-0.0185,-0.0184,-0.0184,-0.0195,-0.0195,-0.0195,-0.0195,-0.0318,-0.0315,-0.0298,-0.0284,-0.0269,-0.0253,-0.0239,-0.0223,-0.0205,-0.0198,-0.0195,-0.0193,-0.0193,-0.0187,-0.0186,-0.0186,-0.0197,-0.0197,-0.0197,-0.0318,-0.0313,-0.0303,-0.0287,-0.0269,-0.0254,-0.024,-0.0226,-0.0206,-0.0197,-0.0193,-0.0193,-0.019,-0.019,-0.018,-0.0178,-0.0177,0,0]},{"header":{"parameterUnit":"m.s-1","parameterCategory":1,"la1":30.2992,"la2":30.254,"lo1":-89.0895,"lo2":-89.0443,"dy":0.0025,"dx":0.0025,"nx":19,"ny":19,"refTime":"2026-03-20T03:00:00:Z","depth":0,"parameterNumber":3,"parameterNumberName":"V-component_of_WINDS"},"data":[0,0,0,2.6546,2.6545,2.6467,2.6467,2.6355,2.6354,0,0,0,0,0,0,0,0,0,0,0,2.6564,2.6563,2.6546,2.6544,2.6467,2.6467,2.6356,2.6354,0,0,0,0,0,0,0,0,0,0,0,2.6565,2.6564,2.6563,2.6544,2.6467,2.6467,2.6356,2.6418,0,0,0,0,0,0,0,0,0,0,2.6495,2.6507,2.6564,2.6563,2.6544,2.6467,2.6467,2.6421,2.6414,2.6386,0,2.6362,0,2.6357,2.6346,2.6346,0,0,0,2.6547,2.6513,2.6497,2.6562,2.6543,2.6468,2.6503,2.6417,2.6409,2.6376,2.6361,2.6357,2.6355,2.6346,2.6345,2.6179,2.6178,0,0,2.6551,2.6547,2.6503,2.6492,2.6507,2.6505,2.65,2.6413,2.6394,2.636,2.6354,2.6353,2.6345,2.6344,2.618,2.6179,0,0,0,2.6562,2.655,2.6536,2.6496,2.6484,2.6503,2.6497,2.6398,2.6394,2.6353,2.6352,2.6344,2.6343,2.6181,2.6179,2.613,0,0,0,2.6564,2.6556,2.6538,2.6534,2.6485,2.644,2.6484,2.64,2.639,2.6352,2.6344,2.6342,2.6182,2.618,2.6133,2.6106,0,0,0,2.6571,2.6557,2.6544,2.6534,2.6502,2.6442,2.6433,2.6398,2.6389,2.6346,2.6341,2.6183,2.618,2.6136,2.6111,2.6059,0,0,0,2.6576,2.6501,2.6544,2.6459,2.6502,2.6414,2.6434,2.6367,2.6325,2.6343,2.6182,2.618,2.6137,2.6114,2.6062,2.6012,2.5992,0,0,2.6479,2.6489,2.644,2.6476,2.6379,2.6426,2.632,2.6284,2.6283,2.6213,2.6209,2.6132,2.6111,2.606,2.5886,2.587,0,0,0,2.6408,2.6372,2.6347,2.6308,2.628,2.6253,2.6234,2.622,2.6161,2.6247,2.6101,2.6089,2.6058,2.6034,2.6021,2.5994,2.6169,2.617,2.617,2.6262,2.6266,2.6184,2.6179,2.614,2.6122,2.6089,2.6067,2.6082,2.6048,2.6026,2.592,2.5892,2.5882,2.5854,2.6003,2.6002,2.6002,2.6002,2.6118,2.6066,2.609,2.6018,2.6022,2.5961,2.594,2.5953,2.5894,2.5937,2.5911,2.5955,2.5864,2.584,2.5998,2.5999,2.6,2.6,2.6,2.602,2.5996,2.5983,2.5925,2.588,2.5877,2.582,2.5827,2.5831,2.5806,2.5781,2.5782,2.5781,2.5795,2.5794,2.5794,2.5793,2.5793,2.5793,2.5922,2.5909,2.5862,2.5827,2.5802,2.5769,2.575,2.5724,2.5697,2.5705,2.5705,2.5721,2.5857,2.5889,2.5787,2.5788,2.5789,2.5789,2.579,2.5768,2.5805,2.5731,2.5706,2.5664,2.5617,2.5628,2.5574,2.5554,2.5525,2.5548,2.5649,2.5658,2.5669,2.5695,2.555,2.555,2.555,2.555,2.5683,2.5691,2.5616,2.5575,2.5536,2.5538,2.5451,2.5435,2.5424,2.5411,2.5433,2.547,2.5481,2.5484,2.5499,2.5523,2.5337,2.5337,2.5337,2.5587,2.5591,2.5517,2.551,2.5478,2.5449,2.5367,2.5316,2.5311,2.5328,2.54,2.5408,2.5468,2.5488,2.5503,2.5526,2.5571,0,0]}]]